This is the latest recevied weather packets stored in our database for station/object WX7FGZ-7. If no packets are shown the sender has not sent any weather packets the latest 10 day(s).
| Time | Temp. | Humidity | Pressure | Rain* | Wind** | Luminosity | Snow |
|---|---|---|---|---|---|---|---|
| 1777041974 | 11.11° C | 23% | 1015.4 hPa | 0 mm | - | - | - |
| 1777041674 | 11.11° C | 23% | 1015.3 hPa | 0 mm | - | - | - |
| 1777040771 | 10° C | 24% | 1015 hPa | 0 mm | - | - | - |
| 1777040569 | 10° C | 24% | 1015.1 hPa | 0 mm | - | - | - |
| 1777040484 | 10° C | 24% | 1015.1 hPa | 0 mm | - | - | - |
| 1777040287 | 9.44° C | 25% | 1015.1 hPa | 0 mm | - | - | - |
| 1777040171 | 9.44° C | 25% | 1015.1 hPa | 0 mm | - | - | - |
| 1777039872 | 8.89° C | 25% | 1015 hPa | 0 mm | - | - | - |
| 1777039712 | 8.89° C | 25% | 1014.9 hPa | 0 mm | - | - | - |
| 1777039571 | 8.89° C | 25% | 1014.9 hPa | 0 mm | - | - | - |
| 1777039412 | 8.89° C | 26% | 1015 hPa | 0 mm | - | - | - |
| 1777039272 | 8.89° C | 26% | 1015 hPa | 0 mm | - | - | - |
| 1777038820 | 8.33° C | 27% | 1015 hPa | 0 mm | - | - | - |
| 1777038685 | 8.33° C | 27% | 1015 hPa | 0 mm | - | - | - |
| 1777038532 | 7.78° C | 28% | 1014.8 hPa | 0 mm | - | - | - |
| 1777038377 | 7.78° C | 28% | 1014.8 hPa | 0 mm | - | - | - |
| 1777038212 | 6.67° C | 31% | 1014.9 hPa | 0 mm | - | - | - |
| 1777038071 | 6.67° C | 31% | 1014.9 hPa | 0 mm | - | - | - |
| 1777037885 | 6.11° C | 32% | 1014.8 hPa | 0 mm | - | - | - |
| 1777037771 | 6.11° C | 32% | 1014.8 hPa | 0 mm | - | - | - |
| 1777037483 | 5° C | 35% | 1014.9 hPa | 0 mm | - | - | - |
| 1777037327 | 4.44° C | 34% | 1014.8 hPa | 0 mm | - | - | - |
| 1777037171 | 4.44° C | 34% | 1014.8 hPa | 0 mm | - | - | - |
| 1777036890 | 3.89° C | 35% | 1014.7 hPa | 0 mm | - | - | - |
| 1777036778 | 3.89° C | 34% | 1014.7 hPa | 0 mm | - | - | - |
* Rain latest hour (hover to see other rain measurements)
** Current wind speed in m/s (hover to see current wind gust speed)